Location: St. Louis
(38.6270°N, 90.1994°W)
Time: 09:24:05
(UTC-06:00)

SR - Pass Details

Date: 05 December 2021
Orbit: 582 x 872 km, 66.7° (Epoch: 21 January)

Event Time Altitude Azimuth Distance (km) Brightness Sun altitude
Rises 22:32:05 0° 204° (SSW) 3,030 - -66.6°
Reaches altitude 10° 22:34:28 10° 203° (SSW) 2,074 - -66.9°
Maximum altitude 22:39:08 81° 117° (ESE) 640 - -67.6°
Drops below altitude 10° 22:43:30 10° 31° (NNE) 1,951 - -68.3°
Sets 22:45:41 0° 30° (NNE) 2,836 - -68.6°
